This is the latest recevied weather packets stored in our database for station/object dl1wer-13. If no packets are shown the sender has not sent any weather packets the latest 10 day(s).
| Time | Temp. | Humidity | Pressure | Rain* | Wind** | Luminosity | Snow |
|---|---|---|---|---|---|---|---|
| 1778023824 | 10.56° C | 94% | 1035.5 hPa | 0 mm | - | - | - |
| 1778023222 | 10.56° C | 93% | 1035.4 hPa | 0 mm | - | - | - |
| 1778022623 | 10.56° C | 93% | 1035.4 hPa | 0 mm | - | - | - |
| 1778022023 | 10.56° C | 93% | 1035.3 hPa | 0 mm | - | - | - |
| 1778021422 | 10.56° C | 93% | 1035.5 hPa | 0 mm | - | - | - |
| 1778020822 | 11.11° C | 93% | 1035.6 hPa | 0 mm | - | - | - |
| 1778020223 | 11.11° C | 93% | 1035.4 hPa | 0 mm | - | - | - |
| 1778019622 | 11.11° C | 93% | 1035.6 hPa | 0 mm | - | - | - |
| 1778019023 | 11.67° C | 92% | 1035.6 hPa | 0 mm | - | - | - |
| 1778018427 | 11.67° C | 92% | 1035.5 hPa | 0 mm | - | - | - |
| 1778017823 | 11.67° C | 92% | 1035.3 hPa | 0 mm | - | - | - |
| 1778017223 | 11.67° C | 91% | 1035.5 hPa | 0 mm | - | - | - |
| 1778016623 | 11.67° C | 91% | 1035.3 hPa | 0.25 mm | - | - | - |
| 1778016023 | 11.67° C | 90% | 1035.2 hPa | 0.25 mm | - | - | - |
| 1778015423 | 11.67° C | 90% | 1035.3 hPa | 0.51 mm | - | - | - |
| 1778014823 | 11.67° C | 90% | 1035.5 hPa | 0.51 mm | - | - | - |
| 1778014222 | 12.22° C | 90% | 1035.4 hPa | 0.51 mm | - | - | - |
| 1778013623 | 12.22° C | 88% | 1035.5 hPa | 0.51 mm | - | - | - |
| 1778013023 | 12.22° C | 86% | 1035.5 hPa | 0.25 mm | - | - | - |
| 1778012422 | 13.33° C | 78% | 1035.6 hPa | 0.25 mm | - | - | - |
| 1778011823 | 13.89° C | 75% | 1035.6 hPa | 0 mm | - | - | - |
| 1778011223 | 13.89° C | 72% | 1035.4 hPa | 0 mm | - | - | - |
| 1778010622 | 14.44° C | 70% | 1035.4 hPa | 0 mm | - | - | - |
| 1778010022 | 14.44° C | 73% | 1035.2 hPa | 0 mm | - | - | - |
| 1778009422 | 14.44° C | 74% | 1035 hPa | 0 mm | - | - | - |
* Rain latest hour (hover to see other rain measurements)
** Current wind speed in m/s (hover to see current wind gust speed)